IW0RQH-13 Weather Reports


Display with metric or nautical units.
time (UTC)temp
F
wind
direction
speed
MPH
gust
MPH
rain 1hr
in
rain 24hr
in
rain mn
in
humidity
%
barometer
mb
20260503200903 63 137 3.0 5.0 0.00 0.00 0.00 59 1017.6
20260503200003 64 150 4.0 6.0 0.00 0.00 0.00 59 1017.5
20260503195445 64 144 3.0 6.0 0.00 0.00 0.00 59 1017.5
20260503194503 64 152 2.0 4.0 0.00 0.00 0.00 56 1017.3
20260503193603 65 166 3.0 5.0 0.00 0.00 0.00 58 1017.3
20260503192703 65 124 3.0 4.0 0.00 0.00 0.00 56 1016.9
20260503191803 65 146 3.0 5.0 0.00 0.00 0.00 55 1017.1
20260503190905 66 172 3.0 5.0 0.00 0.00 0.00 55 1016.7
20260503190004 66 209 2.0 4.0 0.00 0.00 0.00 54 1016.8
20260503185404 67 189 2.0 5.0 0.00 0.00 0.00 51 1016.4
20260503184524 68 125 2.0 4.0 0.00 0.00 0.00 47 1016.3
20260503183603 69 94 1.0 2.0 0.00 0.00 0.00 44 1016.6
20260503182703 69 82 1.0 3.0 0.00 0.00 0.00 43 1016.2
20260503181803 69 77 1.0 3.0 0.00 0.00 0.00 43 1016.3
20260503180903 70 266 0.0 2.0 0.00 0.00 0.00 42 1016.2
20260503180005 70 267 1.0 3.0 0.00 0.00 0.00 40 1016.2
20260503175404 71 251 1.0 3.0 0.00 0.00 0.00 40 1016.1
20260503174503 71 246 1.0 3.0 0.00 0.00 0.00 39 1016.1
20260503173603 72 237 1.0 3.0 0.00 0.00 0.00 38 1015.8
20260503172705 73 214 2.0 3.0 0.00 0.00 0.00 38 1015.8
20260503171824 74 220 1.0 3.0 0.00 0.00 0.00 36 1016.1
20260503170924 74 266 1.0 3.0 0.00 0.00 0.00 36 1016.0
20260503150903 74 304 4.0 11.0 0.00 0.00 0.00 33 1016.7
20260503130903 72 313 6.0 14.0 0.00 0.00 0.00 32 1017.6
20260503080903 62 126 2.0 5.0 0.00 0.00 0.00 49 1020.4
20260503072703 58 158 3.0 8.0 0.00 0.00 0.00 55 1020.6
20260503071803 57 166 3.0 6.0 0.00 0.00 0.00 55 1020.9
20260503070903 57 138 5.0 7.0 0.00 0.00 0.00 56 1020.8
20260503054503 47 146 7.0 12.0 0.00 0.00 0.00 74 1020.8
20260503053603 47 145 7.0 11.0 0.00 0.00 0.00 75 1020.7
20260503052724 47 141 6.0 9.0 0.00 0.00 0.00 73 1020.7
20260503051803 49 133 5.0 9.0 0.00 0.00 0.00 70 1020.6
20260503050924 49 104 5.0 7.0 0.00 0.00 0.00 69 1020.8
20260503050003 47 89 4.0 6.0 0.00 0.00 0.00 71 1020.4
20260503045404 48 109 4.0 7.0 0.00 0.00 0.00 71 1020.6
20260503044524 46 96 4.0 6.0 0.00 0.00 0.00 75 1020.8
20260503043604 46 87 5.0 8.0 0.00 0.00 0.00 74 1020.9
20260503042703 46 104 4.0 6.0 0.00 0.00 0.00 76 1020.5
20260503041803 46 77 4.0 5.0 0.00 0.00 0.00 77 1020.6
20260503040903 46 98 3.0 5.0 0.00 0.00 0.00 78 1020.5
20260503040003 46 49 2.0 6.0 0.00 0.00 0.00 79 1020.3
20260503035403 46 58 2.0 4.0 0.00 0.00 0.00 79 1020.5
20260503034503 46 45 3.0 8.0 0.00 0.00 0.00 76 1020.3
20260503033603 47 52 7.0 12.0 0.00 0.00 0.00 72 1020.2
20260503032703 47 60 4.0 6.0 0.00 0.00 0.00 72 1020.1
20260503031803 47 62 4.0 9.0 0.00 0.00 0.00 72 1020.1
20260503030903 47 68 4.0 8.0 0.00 0.00 0.00 72 1020.1
20260503030003 47 75 5.0 13.0 0.00 0.00 0.00 71 1020.1
20260503025403 48 95 4.0 10.0 0.00 0.00 0.00 70 1020.1
20260503024503 47 127 3.0 6.0 0.00 0.00 0.00 71 1020.2
20260503023624 48 54 2.0 4.0 0.00 0.00 0.00 70 1020.1
20260503022704 48 62 3.0 6.0 0.00 0.00 0.00 69 1020.2
20260503021803 48 88 4.0 8.0 0.00 0.00 0.00 69 1020.2
20260503020903 49 60 7.0 13.0 0.00 0.00 0.00 69 1020.2
20260503020003 49 66 7.0 14.0 0.00 0.00 0.00 68 1020.1
20260503015403 49 68 7.0 11.0 0.00 0.00 0.00 68 1020.3
20260503014503 49 60 7.0 12.0 0.00 0.00 0.00 68 1020.3
20260503013603 50 54 6.0 13.0 0.00 0.00 0.00 66 1020.3
20260503012704 50 79 6.0 9.0 0.00 0.00 0.00 65 1020.2
20260503011803 51 78 7.0 10.0 0.00 0.00 0.00 64 1020.4
20260503010905 51 89 6.0 9.0 0.00 0.00 0.00 63 1020.2
20260503010003 51 96 6.0 9.0 0.00 0.00 0.00 63 1020.4
20260503005403 51 99 6.0 10.0 0.00 0.00 0.00 63 1020.3
20260503004503 51 86 7.0 11.0 0.00 0.00 0.00 63 1020.5
20260503003603 51 77 7.0 11.0 0.00 0.00 0.00 64 1020.5
20260503002704 51 72 8.0 11.0 0.00 0.00 0.00 64 1020.5
20260503001814 51 72 8.0 12.0 0.00 0.00 0.00 63 1020.6
20260503000903 51 76 7.0 11.0 0.00 0.00 0.00 62 1020.5
20260503000003 51 75 8.0 12.0 0.00 0.00 0.00 62 1020.7
20260502235405 51 76 8.0 11.0 0.00 0.00 0.00 62 1020.6
20260502234503 52 79 7.0 11.0 0.00 0.00 0.00 62 1020.7
20260502233603 52 77 7.0 11.0 0.00 0.00 0.00 62 1020.8
20260502232703 52 84 7.0 10.0 0.00 0.00 0.00 61 1020.9
20260502231806 52 87 5.0 8.0 0.00 0.00 0.00 62 1021.1
20260502230903 52 73 6.0 9.0 0.00 0.00 0.00 62 1021.1
20260502230003 52 70 6.0 11.0 0.00 0.00 0.00 61 1021.3
20260502225403 53 73 8.0 13.0 0.00 0.00 0.00 61 1020.9
20260502224524 53 71 8.0 13.0 0.00 0.00 0.00 59 1020.9
20260502223604 54 75 6.0 10.0 0.00 0.00 0.00 57 1021.2
20260502222706 54 73 6.0 9.0 0.00 0.00 0.00 58 1020.9
20260502221803 54 80 7.0 10.0 0.00 0.00 0.00 57 1020.7
20260502220903 55 76 8.0 12.0 0.00 0.00 0.00 56 1020.8
20260502220025 55 85 8.0 12.0 0.00 0.00 0.00 56 1020.8
20260502215405 55 91 8.0 13.0 0.00 0.00 0.00 55 1020.7
20260502214503 56 91 8.0 12.0 0.00 0.00 0.00 53 1020.7
20260502213627 56 84 8.0 14.0 0.00 0.00 0.00 53 1020.7
20260502212704 56 82 8.0 13.0 0.00 0.00 0.00 53 1020.5
20260502211803 57 81 7.0 12.0 0.00 0.00 0.00 52 1020.8
20260502210903 58 78 7.0 12.0 0.00 0.00 0.00 50 1020.6
20260502210003 58 90 7.0 11.0 0.00 0.00 0.00 49 1020.5
20260502205403 58 81 7.0 11.0 0.00 0.00 0.00 50 1020.5
20260502204503 59 94 6.0 9.0 0.00 0.00 0.00 48 1020.6
20260502203624 60 87 6.0 10.0 0.00 0.00 0.00 47 1020.4
20260502202703 61 97 7.0 11.0 0.00 0.00 0.00 46 1020.6
20260502201803 61 71 8.0 15.0 0.00 0.00 0.00 45 1020.4